ドゥ・トイト-ニェウイミン-デルポルト彗星

57P/du Toit-Neujmin-Delporte (2021)

English version
Home page
Updated on September 18, 2021

---------------------------------------------------------------------

・ プロフィール

・ 写真集

・ 軌道要素

Epoch 2021 Nov. 2.0 TT = JDT 2459520.5
T 2021 Oct. 17.42204 TT                                 Rudenko
q   1.7201212            (2000.0)            P               Q
n   0.15399113     Peri.  115.26312     +0.55954764     +0.82876347
a   3.4472458      Node   188.77320     -0.77717935     +0.52149631
e   0.5010158      Incl.    2.85099     -0.28792134     +0.20295989
P   6.40
From 774 observations 2015 Feb. 18-2021 June 26, mean residual 0".7.
     Nongravitational parameters A1 = +0.50, A2 = -0.0071.

・ 星図

・ 光度変化

        m1 = 10.0 + 5 logΔ + 22.0 log r

---------------------------------------------------------------------

軌道要素はM.P.E.C. 2021-N06に掲載されたものです。
星図はステラナビゲータ Ver.10 (アストロアーツ) で作成したものです。
光度グラフはComet for Windowsで作成したものです。

---------------------------------------------------------------------

Copyright(C) Seiichi Yoshida (comet@aerith.net). All rights reserved.